User: anonymous   Login
Location: Irma
(52.9170°N, 111.2330°W)
Time: 02:15:17
(UTC-06:00)
Language:

Meteor 1-24 Rocket - Orbit

View from above orbital plane
View from above orbital plane
View from above satellite
View from above satellite

Ground track
Ground track

The orbit data is extracted from the following two-line orbital elements,

1 08800U 76032B   14303.87215547 -.00000096  00000-0 -59487-4 0  1530
2 08800 081.2515 071.4827 0094584 024.2518 087.0850 14.09974728982852
Epoch (UTC): 30 October 2014 20:55:54
Eccentricity: 0.0094584
inclination: 81.2515°
perigee height: 791 km
apogee height: 928 km
right ascension of ascending node: 71.4827°
argument of perigee: 24.2518°
revolutions per day: 14.09974728
mean anomaly at epoch: 87.0850°
orbit number at epoch: 98285

The dashed part of the orbit path shows where the satellite is in the earth's shadow,  

DLR